Year,Month,Day,Hour,Minute,Value (Times are PST for temperature in C)
2013,03,05,10,19,5.20
2013,03,05,10,20,5.20
2013,03,05,10,21,5.30
2013,03,05,10,22,5.30
2013,03,05,10,23,5.30
2013,03,05,10,24,5.30
2013,03,05,10,25,5.30
2013,03,05,10,26,5.30
2013,03,05,10,27,5.30
2013,03,05,10,28,5.40
2013,03,05,10,29,5.40
2013,03,05,10,30,5.40
2013,03,05,10,31,5.50
2013,03,05,10,32,5.50
2013,03,05,10,33,5.50
2013,03,05,10,34,5.60
2013,03,05,10,35,5.60
2013,03,05,10,36,5.60
2013,03,05,10,37,5.70
2013,03,05,10,38,5.70
2013,03,05,10,39,5.70
2013,03,05,10,40,5.70
2013,03,05,10,41,5.70
2013,03,05,10,42,5.70
2013,03,05,10,43,5.80
2013,03,05,10,44,5.80
2013,03,05,10,45,5.80
2013,03,05,10,46,5.90
2013,03,05,10,47,5.90
2013,03,05,10,48,5.90
2013,03,05,10,49,5.90
2013,03,05,10,50,5.90
2013,03,05,10,51,5.90
2013,03,05,10,52,5.90
2013,03,05,10,53,5.90
2013,03,05,10,54,6.00
2013,03,05,10,55,6.00
2013,03,05,10,56,6.00
2013,03,05,10,57,6.00
2013,03,05,10,58,6.00
2013,03,05,10,59,6.00
2013,03,05,11,00,6.10
2013,03,05,11,01,6.00
2013,03,05,11,02,6.00
2013,03,05,11,03,6.00
2013,03,05,11,04,5.90
2013,03,05,11,05,5.90
2013,03,05,11,06,5.90
2013,03,05,11,07,5.90
2013,03,05,11,08,5.80
2013,03,05,11,09,5.70
2013,03,05,11,10,5.70
2013,03,05,11,11,5.70
2013,03,05,11,12,5.70
2013,03,05,11,13,5.70
2013,03,05,11,14,5.70
2013,03,05,11,15,5.60
2013,03,05,11,16,5.60
2013,03,05,11,17,5.60
2013,03,05,11,18,5.60
2013,03,05,11,19,5.60
2013,03,05,11,20,5.50
2013,03,05,11,21,5.50
2013,03,05,11,22,5.50
2013,03,05,11,23,5.50
2013,03,05,11,24,5.50
2013,03,05,11,25,5.50
2013,03,05,11,26,5.50
2013,03,05,11,27,5.50
2013,03,05,11,28,5.50
2013,03,05,11,29,5.50
2013,03,05,11,30,5.50
2013,03,05,11,31,5.50
2013,03,05,11,32,5.50
2013,03,05,11,33,5.50
2013,03,05,11,34,5.50
2013,03,05,13,50,5.50
2013,03,05,13,51,5.50
2013,03,05,13,52,5.60
2013,03,05,13,53,5.60
2013,03,05,13,54,5.60
2013,03,05,13,55,5.60
2013,03,05,13,56,5.60
2013,03,05,13,57,5.60
2013,03,05,13,58,5.60
2013,03,05,13,59,5.70
2013,03,05,14,00,5.70
2013,03,05,14,01,5.60
2013,03,05,14,02,5.60
2013,03,05,14,03,5.60
2013,03,05,14,04,5.60
2013,03,05,14,05,5.60
2013,03,05,14,06,5.60
2013,03,05,14,07,5.60
2013,03,05,14,08,5.70
2013,03,05,14,09,5.70
2013,03,05,14,10,5.70
2013,03,05,14,11,5.70
2013,03,05,14,12,5.70
2013,03,05,14,13,5.70
2013,03,05,14,14,5.70
2013,03,05,14,15,5.70
2013,03,05,14,16,5.70
2013,03,05,14,17,5.70
2013,03,05,14,18,5.70
2013,03,05,14,19,5.70
2013,03,05,14,20,5.70
2013,03,05,14,21,5.70
2013,03,05,14,22,5.70
2013,03,05,14,23,5.70
2013,03,05,14,24,5.70
2013,03,05,14,25,5.70
2013,03,05,14,26,5.70
2013,03,05,14,27,5.70
2013,03,05,14,28,5.70
2013,03,05,14,29,5.70
2013,03,05,14,30,5.70
2013,03,05,14,31,5.70
2013,03,05,14,32,5.70
2013,03,05,14,33,5.70
2013,03,05,14,34,5.70
2013,03,05,14,35,5.70
2013,03,05,14,36,5.70
2013,03,05,14,37,5.70
2013,03,05,14,38,5.70
